STARLINK-3973 (52645 NORAD) Tracking and Keplerian Element Data

This shows tracking and keplerian element data for the satellite.

Feedback or suggestion? Click here.




ElementValue
Catalog52645
NameSTARLINK-3973
Epoch Orbit130
Epoch Day167.08334491
Epoch Year2022
RAAN279.9837
Inclination53.2141
Eccentricity0.0001575
Argument of Perigee27.6301
Mean Anonmoly17.4046
Mean Motion15.7320183
Decay Rate0.00070817
L11 52645U 22052AZ 22167.08334491 .00070817 00000+0 50470-3 0 9994
L22 52645 53.2141 279.9837 0001575 27.6301 17.4046 15.73201830 1308

Live tracking and technical data element details for STARLINK-3973 (NORAD 52645). STARLINK-3973 can be tracked NOW for your location showing map with azimuth and elevation plus other details from your city location.

Track the satellite on the map from your city or location and see movement details for azimuth, elevation, latitude, longitude, range, height, and movement on the map or in text.







IsCatalogInMostPopularTable: catalog: 52645, numindb: 1
Update: records affected: 1



GetName: 52645 STARLINK-3973

Hit Count: updated at: Mon, 27 Jun 2022 05:29:23 GMT